Time,TemperatureF,DewpointF,PressureIn,WindDirection,WindDirectionDegrees,WindSpeedMPH,WindSpeedGustMPH,Humidity,HourlyPrecipIn,Conditions,Clouds,dailyrainin,SoftwareType,DateUTC
2013-03-13 00:00:00,32.9,27.4,29.99,SSW,192,0.0,3.0,80,0.00,,---,0.00,VWS V14.01,2013-03-13 04:00:00,
2013-03-13 00:05:00,33.0,27.5,29.99,SSW,192,0.0,3.0,80,0.00,,---,0.00,VWS V14.01,2013-03-13 04:05:00,
2013-03-13 00:10:00,33.0,27.5,29.99,SSW,206,0.0,3.0,80,0.00,,---,0.00,VWS V14.01,2013-03-13 04:10:00,
2013-03-13 00:15:00,33.0,27.5,29.99,SSW,206,0.0,3.0,80,0.00,,---,0.00,VWS V14.01,2013-03-13 04:15:00,
2013-03-13 00:20:00,32.9,27.4,29.99,South,170,0.0,4.0,80,0.00,,---,0.00,VWS V14.01,2013-03-13 04:20:00,
2013-03-13 00:25:00,32.9,27.4,29.99,SSW,197,1.0,6.0,80,0.00,,---,0.00,VWS V14.01,2013-03-13 04:25:00,
2013-03-13 00:30:00,32.9,27.7,29.99,South,180,1.0,3.0,81,0.00,,---,0.00,VWS V14.01,2013-03-13 04:30:00,
2013-03-13 00:35:00,32.9,27.7,29.99,SSW,204,0.0,4.0,81,0.00,,---,0.00,VWS V14.01,2013-03-13 04:35:00,
2013-03-13 00:40:00,32.8,27.6,29.98,SSW,204,1.0,4.0,81,0.00,,---,0.00,VWS V14.01,2013-03-13 04:40:00,
2013-03-13 00:45:00,32.8,27.6,29.98,South,170,3.0,4.0,81,0.00,,---,0.00,VWS V14.01,2013-03-13 04:45:00,
2013-03-13 00:50:00,32.6,27.4,29.98,SW,228,0.0,4.0,81,0.00,,---,0.00,VWS V14.01,2013-03-13 04:50:00,
2013-03-13 00:55:00,32.5,27.6,29.98,SW,228,0.0,4.0,82,0.00,,---,0.00,VWS V14.01,2013-03-13 04:55:00,
2013-03-13 01:00:00,32.3,27.4,29.98,SW,228,0.0,2.0,82,0.00,,---,0.00,VWS V14.01,2013-03-13 05:00:00,
2013-03-13 01:05:00,32.2,27.3,29.98,SW,228,0.0,2.0,82,0.00,,---,0.00,VWS V14.01,2013-03-13 05:05:00,
2013-03-13 01:10:00,32.1,27.2,29.98,SW,228,1.0,2.0,82,0.00,,---,0.00,VWS V14.01,2013-03-13 05:10:00,
2013-03-13 01:15:00,31.9,27.3,29.98,SW,228,0.0,2.0,83,0.00,,---,0.00,VWS V14.01,2013-03-13 05:15:00,
2013-03-13 01:20:00,31.8,27.2,29.98,SW,228,0.0,3.0,83,0.00,,---,0.00,VWS V14.01,2013-03-13 05:20:00,
2013-03-13 01:25:00,31.7,27.4,29.98,SW,228,0.0,3.0,84,0.00,,---,0.00,VWS V14.01,2013-03-13 05:25:00,
2013-03-13 01:30:00,31.6,27.3,29.98,SW,228,0.0,2.0,84,0.00,,---,0.00,VWS V14.01,2013-03-13 05:30:00,
2013-03-13 01:35:00,31.5,27.2,29.98,SW,228,1.0,2.0,84,0.00,,---,0.00,VWS V14.01,2013-03-13 05:35:00,
2013-03-13 01:40:00,31.4,27.1,29.98,South,180,4.0,4.0,84,0.00,,---,0.00,VWS V14.01,2013-03-13 05:40:00,
2013-03-13 01:45:00,31.4,27.4,29.98,South,180,0.0,4.0,85,0.00,,---,0.00,VWS V14.01,2013-03-13 05:45:00,
2013-03-13 01:50:00,31.4,27.4,29.97,South,180,0.0,4.0,85,0.00,,---,0.00,VWS V14.01,2013-03-13 05:50:00,
2013-03-13 01:55:00,31.4,27.4,29.97,South,180,0.0,4.0,85,0.00,,---,0.00,VWS V14.01,2013-03-13 05:55:00,
2013-03-13 02:00:00,31.3,27.3,29.97,South,180,0.0,3.0,85,0.00,,---,0.00,VWS V14.01,2013-03-13 06:00:00,
2013-03-13 02:05:00,31.3,27.6,29.97,South,180,0.0,3.0,86,0.00,,---,0.00,VWS V14.01,2013-03-13 06:05:00,
2013-03-13 02:10:00,31.3,27.6,29.97,South,180,0.0,3.0,86,0.00,,---,0.00,VWS V14.01,2013-03-13 06:10:00,
2013-03-13 02:15:00,31.2,27.2,29.96,South,180,0.0,3.0,85,0.00,,---,0.00,VWS V14.01,2013-03-13 06:15:00,
2013-03-13 02:20:00,31.2,27.2,29.97,South,180,0.0,3.0,85,0.00,,---,0.00,VWS V14.01,2013-03-13 06:20:00,
2013-03-13 02:25:00,31.1,27.4,29.97,South,180,0.0,3.0,86,0.00,,---,0.00,VWS V14.01,2013-03-13 06:25:00,
2013-03-13 02:30:00,31.0,27.3,29.97,South,180,0.0,0.0,86,0.00,,---,0.00,VWS V14.01,2013-03-13 06:30:00,
2013-03-13 02:35:00,30.8,27.1,29.96,South,180,0.0,0.0,86,0.00,,---,0.00,VWS V14.01,2013-03-13 06:35:00,
2013-03-13 02:40:00,30.7,27.0,29.96,South,180,0.0,0.0,86,0.00,,---,0.00,VWS V14.01,2013-03-13 06:40:00,
2013-03-13 02:45:00,30.5,26.8,29.96,South,180,0.0,0.0,86,0.00,,---,0.00,VWS V14.01,2013-03-13 06:45:00,
2013-03-13 02:50:00,30.4,27.0,29.96,South,180,0.0,0.0,87,0.00,,---,0.00,VWS V14.01,2013-03-13 06:50:00,
2013-03-13 02:55:00,30.4,27.0,29.95,South,180,0.0,0.0,87,0.00,,---,0.00,VWS V14.01,2013-03-13 06:55:00,
2013-03-13 03:00:00,30.5,27.1,29.95,South,180,0.0,0.0,87,0.00,,---,0.00,VWS V14.01,2013-03-13 07:00:00,
2013-03-13 03:05:00,30.4,27.0,29.95,South,180,0.0,0.0,87,0.00,,---,0.00,VWS V14.01,2013-03-13 07:05:00,
2013-03-13 03:10:00,30.5,27.1,29.95,South,180,0.0,0.0,87,0.00,,---,0.00,VWS V14.01,2013-03-13 07:10:00,
2013-03-13 03:15:00,30.6,27.2,29.95,South,180,0.0,0.0,87,0.00,,---,0.00,VWS V14.01,2013-03-13 07:15:00,
2013-03-13 03:20:00,30.7,27.3,29.95,South,180,0.0,2.0,87,0.00,,---,0.00,VWS V14.01,2013-03-13 07:20:00,
2013-03-13 03:25:00,30.9,27.2,29.95,South,180,0.0,2.0,86,0.00,,---,0.00,VWS V14.01,2013-03-13 07:25:00,
2013-03-13 03:30:00,30.9,27.2,29.95,South,180,0.0,2.0,86,0.00,,---,0.00,VWS V14.01,2013-03-13 07:30:00,
2013-03-13 03:31:00,31.0,27.0,29.95,South,180,1.0,2.0,85,0.00,,---,0.00,VWS V14.01,2013-03-13 07:31:00,
2013-03-13 03:36:00,31.1,26.8,29.94,South,175,2.0,3.0,84,0.00,,---,0.00,VWS V14.01,2013-03-13 07:36:00,
2013-03-13 03:41:00,31.2,26.6,29.94,South,190,0.0,3.0,83,0.00,,---,0.00,VWS V14.01,2013-03-13 07:41:00,
2013-03-13 03:46:00,31.3,26.5,29.94,South,190,1.0,3.0,82,0.00,,---,0.00,VWS V14.01,2013-03-13 07:46:00,
2013-03-13 03:51:00,31.4,26.5,29.94,SSE,160,0.0,3.0,82,0.00,,---,0.00,VWS V14.01,2013-03-13 07:51:00,
2013-03-13 03:56:00,31.4,26.2,29.94,SSW,198,0.0,4.0,81,0.00,,---,0.00,VWS V14.01,2013-03-13 07:56:00,
2013-03-13 04:00:00,31.4,26.2,29.94,SSW,198,0.0,4.0,81,0.00,,---,0.00,VWS V14.01,2013-03-13 08:00:00,
2013-03-13 04:01:00,31.4,26.5,29.94,SSW,198,0.0,2.0,82,0.00,,---,0.00,VWS V14.01,2013-03-13 08:01:00,
2013-03-13 04:08:00,31.4,26.5,29.94,SSW,197,2.0,4.0,82,0.00,,---,0.00,VWS V14.01,2013-03-13 08:08:00,
2013-03-13 04:13:00,31.3,26.8,29.94,South,180,0.0,4.0,83,0.00,,---,0.00,VWS V14.01,2013-03-13 08:13:00,
2013-03-13 04:18:00,31.3,27.0,29.94,SSW,206,1.0,4.0,84,0.00,,---,0.00,VWS V14.01,2013-03-13 08:18:00,
2013-03-13 04:23:00,31.2,26.9,29.94,SSW,205,0.0,4.0,84,0.00,,---,0.00,VWS V14.01,2013-03-13 08:23:00,
2013-03-13 04:28:00,31.1,27.1,29.93,SSW,205,0.0,0.0,85,0.00,,---,0.00,VWS V14.01,2013-03-13 08:28:00,
2013-03-13 04:30:00,31.1,27.1,29.93,SSW,205,0.0,4.0,85,0.00,,---,0.00,VWS V14.01,2013-03-13 08:30:00,
2013-03-13 04:33:00,31.0,27.0,29.93,SSW,194,0.0,5.0,85,0.00,,---,0.00,VWS V14.01,2013-03-13 08:33:00,
2013-03-13 04:38:00,31.0,27.3,29.93,SSW,194,0.0,5.0,86,0.00,,---,0.00,VWS V14.01,2013-03-13 08:38:00,
2013-03-13 04:43:00,31.0,27.3,29.93,SSW,194,2.0,5.0,86,0.00,,---,0.00,VWS V14.01,2013-03-13 08:43:00,
2013-03-13 04:48:00,31.0,27.3,29.93,SSW,211,3.0,5.0,86,0.00,,---,0.00,VWS V14.01,2013-03-13 08:48:00,
2013-03-13 04:53:00,31.0,27.3,29.93,South,170,2.0,5.0,86,0.00,,---,0.00,VWS V14.01,2013-03-13 08:53:00,
2013-03-13 04:58:00,31.0,27.3,29.93,SSW,200,3.0,7.0,86,0.00,,---,0.00,VWS V14.01,2013-03-13 08:58:00,
2013-03-13 05:00:00,31.0,27.3,29.93,East,97,3.0,6.0,86,0.00,,---,0.00,VWS V14.01,2013-03-13 09:00:00,
2013-03-13 05:03:00,31.1,27.4,29.93,South,180,2.0,7.0,86,0.00,,---,0.00,VWS V14.01,2013-03-13 09:03:00,
2013-03-13 05:08:00,31.2,27.5,29.94,SW,215,0.0,7.0,86,0.00,,---,0.00,VWS V14.01,2013-03-13 09:08:00,
2013-03-13 05:13:00,31.2,27.5,29.94,SW,215,0.0,7.0,86,0.00,,---,0.00,VWS V14.01,2013-03-13 09:13:00,
2013-03-13 05:18:00,31.2,27.5,29.93,SSW,202,2.0,7.0,86,0.00,,---,0.00,VWS V14.01,2013-03-13 09:18:00,
2013-03-13 05:23:00,31.2,27.5,29.94,SSW,205,3.0,7.0,86,0.00,,---,0.00,VWS V14.01,2013-03-13 09:23:00,
2013-03-13 05:28:00,31.2,27.5,29.93,SSW,193,0.0,0.0,86,0.00,,---,0.00,VWS V14.01,2013-03-13 09:28:00,
2013-03-13 05:30:00,31.2,27.2,29.94,SSW,193,0.0,7.0,85,0.00,,---,0.00,VWS V14.01,2013-03-13 09:30:00,
2013-03-13 05:33:00,31.3,27.3,29.93,South,184,0.0,6.0,85,0.00,,---,0.00,VWS V14.01,2013-03-13 09:33:00,
2013-03-13 05:39:00,31.3,27.6,29.93,South,184,0.0,6.0,86,0.00,,---,0.00,VWS V14.01,2013-03-13 09:39:00,
2013-03-13 05:44:00,31.3,27.6,29.93,South,184,1.0,6.0,86,0.00,,---,0.00,VWS V14.01,2013-03-13 09:44:00,
2013-03-13 05:49:00,31.3,27.3,29.93,South,184,2.0,6.0,85,0.00,,---,0.00,VWS V14.01,2013-03-13 09:49:00,
2013-03-13 05:54:00,31.3,27.3,29.93,South,184,0.0,6.0,85,0.00,,---,0.00,VWS V14.01,2013-03-13 09:54:00,
2013-03-13 05:59:00,31.2,27.2,29.93,South,184,0.0,3.0,85,0.00,,---,0.00,VWS V14.01,2013-03-13 09:59:00,
2013-03-13 06:00:00,31.3,27.6,29.93,South,184,2.0,6.0,86,0.00,,---,0.00,VWS V14.01,2013-03-13 10:00:00,
2013-03-13 06:04:00,31.2,27.2,29.93,South,186,0.0,4.0,85,0.00,,---,0.00,VWS V14.01,2013-03-13 10:04:00,
2013-03-13 06:09:00,31.2,27.2,29.93,SSW,198,0.0,5.0,85,0.00,,---,0.00,VWS V14.01,2013-03-13 10:09:00,
2013-03-13 06:14:00,31.2,27.5,29.93,SSW,211,1.0,5.0,86,0.00,,---,0.00,VWS V14.01,2013-03-13 10:14:00,
2013-03-13 06:19:00,31.3,27.3,29.93,SSW,211,1.0,5.0,85,0.00,,---,0.00,VWS V14.01,2013-03-13 10:19:00,
2013-03-13 06:24:00,31.3,27.6,29.93,SSW,211,2.0,5.0,86,0.00,,---,0.00,VWS V14.01,2013-03-13 10:24:00,
2013-03-13 06:29:00,31.3,27.3,29.93,SSW,192,0.0,3.0,85,0.00,,---,0.00,VWS V14.01,2013-03-13 10:29:00,
2013-03-13 06:30:00,31.3,27.3,29.93,SSW,197,2.0,5.0,85,0.00,,---,0.00,VWS V14.01,2013-03-13 10:30:00,
2013-03-13 06:34:00,31.3,27.3,29.93,SE,134,1.0,7.0,85,0.00,,---,0.00,VWS V14.01,2013-03-13 10:34:00,
2013-03-13 06:39:00,31.4,27.4,29.94,SW,224,0.0,7.0,85,0.00,,---,0.00,VWS V14.01,2013-03-13 10:39:00,
2013-03-13 06:44:00,31.3,27.0,29.93,SW,224,0.0,8.0,84,0.00,,---,0.00,VWS V14.01,2013-03-13 10:44:00,
2013-03-13 06:49:00,31.3,27.0,29.93,South,180,3.0,8.0,84,0.00,,---,0.00,VWS V14.01,2013-03-13 10:49:00,
2013-03-13 06:54:00,31.2,26.9,29.94,South,170,2.0,8.0,84,0.00,,---,0.00,VWS V14.01,2013-03-13 10:54:00,
2013-03-13 06:59:00,31.2,26.9,29.93,South,170,0.0,0.0,84,0.00,,---,0.00,VWS V14.01,2013-03-13 10:59:00,
2013-03-13 07:00:00,31.2,26.9,29.93,South,170,0.0,8.0,84,0.00,,---,0.00,VWS V14.01,2013-03-13 11:00:00,
2013-03-13 07:04:00,31.2,26.9,29.94,SSW,204,0.0,5.0,84,0.00,,---,0.00,VWS V14.01,2013-03-13 11:04:00,
2013-03-13 07:09:00,31.2,26.6,29.94,WSW,238,0.0,7.0,83,0.00,,---,0.00,VWS V14.01,2013-03-13 11:09:00,
2013-03-13 07:14:00,31.2,26.4,29.94,North,5,0.0,7.0,82,0.00,,---,0.00,VWS V14.01,2013-03-13 11:14:00,
2013-03-13 07:19:00,31.2,26.4,29.94,SSW,200,0.0,7.0,82,0.00,,---,0.00,VWS V14.01,2013-03-13 11:19:00,
2013-03-13 07:24:00,31.2,26.1,29.94,SSE,158,2.0,7.0,81,0.00,,---,0.00,VWS V14.01,2013-03-13 11:24:00,
2013-03-13 07:29:00,31.2,26.1,29.94,South,170,2.0,4.0,81,0.00,,---,0.00,VWS V14.01,2013-03-13 11:29:00,
2013-03-13 07:30:00,31.2,26.1,29.94,SSW,201,4.0,7.0,81,0.00,,---,0.00,VWS V14.01,2013-03-13 11:30:00,
2013-03-13 07:34:00,31.2,26.1,29.94,South,186,0.0,6.0,81,0.00,,---,0.00,VWS V14.01,2013-03-13 11:34:00,
2013-03-13 07:39:00,31.1,26.0,29.94,SSW,211,2.0,6.0,81,0.00,,---,0.00,VWS V14.01,2013-03-13 11:39:00,
2013-03-13 07:44:00,31.1,25.7,29.94,NNW,336,2.0,6.0,80,0.00,,---,0.00,VWS V14.01,2013-03-13 11:44:00,
2013-03-13 07:49:00,31.1,25.7,29.94,NW,325,2.0,9.0,80,0.00,,---,0.00,VWS V14.01,2013-03-13 11:49:00,
2013-03-13 07:54:00,31.0,25.3,29.94,ENE,78,1.0,9.0,79,0.00,,---,0.00,VWS V14.01,2013-03-13 11:54:00,
2013-03-13 07:59:00,31.0,25.3,29.94,NNW,332,1.0,4.0,79,0.00,,---,0.00,VWS V14.01,2013-03-13 11:59:00,
2013-03-13 08:00:00,31.0,25.3,29.94,ESE,107,0.0,9.0,79,0.00,,---,0.00,VWS V14.01,2013-03-13 12:00:00,
2013-03-13 08:04:00,31.0,25.3,29.94,ESE,121,1.0,4.0,79,0.00,,---,0.00,VWS V14.01,2013-03-13 12:04:00,
2013-03-13 08:09:00,31.0,25.0,29.94,SW,234,0.0,5.0,78,0.00,,---,0.00,VWS V14.01,2013-03-13 12:09:00,
2013-03-13 08:14:00,31.0,25.0,29.95,NNW,337,4.0,6.0,78,0.00,,---,0.00,VWS V14.01,2013-03-13 12:14:00,
2013-03-13 08:19:00,30.9,25.2,29.95,WNW,297,0.0,7.0,79,0.00,,---,0.00,VWS V14.01,2013-03-13 12:19:00,
2013-03-13 08:24:00,30.8,25.1,29.95,West,270,2.0,7.0,79,0.00,,---,0.00,VWS V14.01,2013-03-13 12:24:00,
2013-03-13 08:29:00,30.7,24.7,29.95,NW,324,1.0,4.0,78,0.00,,---,0.00,VWS V14.01,2013-03-13 12:29:00,
2013-03-13 08:30:00,30.7,24.7,29.95,WNW,295,1.0,7.0,78,0.00,,---,0.00,VWS V14.01,2013-03-13 12:30:00,
2013-03-13 08:34:00,30.7,24.4,29.95,West,263,0.0,6.0,77,0.00,,---,0.00,VWS V14.01,2013-03-13 12:34:00,
2013-03-13 08:39:00,30.6,24.0,29.95,South,170,2.0,7.0,76,0.00,,---,0.00,VWS V14.01,2013-03-13 12:39:00,
2013-03-13 08:44:00,30.5,23.5,29.96,SW,236,0.0,7.0,75,0.00,,---,0.00,VWS V14.01,2013-03-13 12:44:00,
2013-03-13 08:49:00,30.5,23.9,29.96,WNW,282,4.0,7.0,76,0.00,,---,0.00,VWS V14.01,2013-03-13 12:49:00,
2013-03-13 08:54:00,30.3,23.7,29.96,SW,225,1.0,7.0,76,0.00,,---,0.00,VWS V14.01,2013-03-13 12:54:00,
2013-03-13 08:59:00,30.2,23.9,29.96,NW,311,1.0,4.0,77,0.00,,---,0.00,VWS V14.01,2013-03-13 12:59:00,
2013-03-13 09:00:00,30.3,23.7,29.96,NNW,327,1.0,7.0,76,0.00,,---,0.00,VWS V14.01,2013-03-13 13:00:00,
2013-03-13 09:04:00,30.2,24.2,29.96,WNW,303,1.0,4.0,78,0.00,,---,0.00,VWS V14.01,2013-03-13 13:04:00,
2013-03-13 09:09:00,30.2,24.2,29.96,NW,318,5.0,5.0,78,0.00,,---,0.00,VWS V14.01,2013-03-13 13:09:00,
2013-03-13 09:15:00,30.0,24.0,29.97,SW,235,0.0,6.0,78,0.00,,---,0.00,VWS V14.01,2013-03-13 13:15:00,
2013-03-13 09:20:00,29.8,24.1,29.97,West,278,0.0,8.0,79,0.00,,---,0.00,VWS V14.01,2013-03-13 13:20:00,
2013-03-13 09:25:00,29.7,24.0,29.97,NNW,342,1.0,10.0,79,0.00,,---,0.00,VWS V14.01,2013-03-13 13:25:00,
2013-03-13 09:30:00,29.6,23.9,29.97,WNW,303,0.0,9.0,79,0.00,,---,0.00,VWS V14.01,2013-03-13 13:30:00,
2013-03-13 09:35:00,29.7,24.6,29.97,WNW,303,5.0,9.0,81,0.00,,---,0.00,VWS V14.01,2013-03-13 13:35:00,
2013-03-13 09:40:00,29.8,24.7,29.97,WNW,298,1.0,9.0,81,0.00,,---,0.00,VWS V14.01,2013-03-13 13:40:00,
2013-03-13 09:45:00,29.9,25.1,29.97,NNW,346,2.0,9.0,82,0.00,,---,0.00,VWS V14.01,2013-03-13 13:45:00,
2013-03-13 09:50:00,29.9,25.1,29.98,NW,323,2.0,9.0,82,0.00,,---,0.00,VWS V14.01,2013-03-13 13:50:00,
2013-03-13 09:55:00,29.8,24.7,29.98,NW,306,2.0,9.0,81,0.00,,---,0.00,VWS V14.01,2013-03-13 13:55:00,
2013-03-13 10:00:00,29.8,24.4,29.98,WSW,245,1.0,3.0,80,0.00,,---,0.00,VWS V14.01,2013-03-13 14:00:00,
2013-03-13 10:05:00,29.9,24.2,29.98,West,263,2.0,6.0,79,0.00,,---,0.00,VWS V14.01,2013-03-13 14:05:00,
2013-03-13 10:10:00,30.0,23.7,29.98,SW,228,4.0,6.0,77,0.00,,---,0.00,VWS V14.01,2013-03-13 14:10:00,
2013-03-13 10:15:00,30.1,23.8,29.98,NW,321,1.0,6.0,77,0.00,,---,0.00,VWS V14.01,2013-03-13 14:15:00,
2013-03-13 10:20:00,30.1,23.8,29.98,NNW,344,4.0,6.0,77,0.00,,---,0.00,VWS V14.01,2013-03-13 14:20:00,
2013-03-13 10:25:00,30.3,24.0,29.98,South,189,2.0,6.0,77,0.00,,---,0.00,VWS V14.01,2013-03-13 14:25:00,
2013-03-13 10:30:00,30.4,23.8,29.99,SW,218,0.0,8.0,76,0.00,,---,0.00,VWS V14.01,2013-03-13 14:30:00,
2013-03-13 10:35:00,30.5,23.5,29.99,South,189,7.0,8.0,75,0.00,,---,0.00,VWS V14.01,2013-03-13 14:35:00,
2013-03-13 10:40:00,30.8,24.1,29.99,NW,307,2.0,8.0,76,0.00,,---,0.00,VWS V14.01,2013-03-13 14:40:00,
2013-03-13 10:45:00,31.1,24.1,29.99,West,264,2.0,8.0,75,0.00,,---,0.00,VWS V14.01,2013-03-13 14:45:00,
2013-03-13 10:50:00,31.4,24.4,29.99,SSW,205,1.0,8.0,75,0.00,,---,0.00,VWS V14.01,2013-03-13 14:50:00,
2013-03-13 10:55:00,31.6,24.3,29.99,WSW,253,2.0,8.0,74,0.00,,---,0.00,VWS V14.01,2013-03-13 14:55:00,
2013-03-13 11:00:00,31.7,23.4,29.99,WNW,286,2.0,5.0,71,0.00,,---,0.00,VWS V14.01,2013-03-13 15:00:00,
2013-03-13 11:05:00,31.6,23.3,29.99,West,260,1.0,8.0,71,0.00,,---,0.00,VWS V14.01,2013-03-13 15:05:00,
2013-03-13 11:10:00,31.4,23.1,29.99,West,259,0.0,8.0,71,0.00,,---,0.00,VWS V14.01,2013-03-13 15:10:00,
2013-03-13 11:15:00,31.4,22.8,29.99,NW,309,2.0,8.0,70,0.00,,---,0.00,VWS V14.01,2013-03-13 15:15:00,
2013-03-13 11:20:00,31.3,23.0,30.00,WSW,257,0.0,8.0,71,0.00,,---,0.00,VWS V14.01,2013-03-13 15:20:00,
2013-03-13 11:25:00,31.4,23.8,30.00,NW,319,7.0,8.0,73,0.00,,---,0.00,VWS V14.01,2013-03-13 15:25:00,
2013-03-13 11:30:00,31.4,24.1,30.00,NNW,336,0.0,5.0,74,0.00,,---,0.00,VWS V14.01,2013-03-13 15:30:00,
2013-03-13 11:35:00,31.5,23.9,30.00,NW,306,1.0,7.0,73,0.00,,---,0.00,VWS V14.01,2013-03-13 15:35:00,
2013-03-13 11:40:00,31.2,23.2,30.00,WNW,300,2.0,8.0,72,0.00,,---,0.00,VWS V14.01,2013-03-13 15:40:00,
2013-03-13 11:45:00,31.0,24.0,30.00,NNW,339,2.0,8.0,75,0.00,,---,0.00,VWS V14.01,2013-03-13 15:45:00,
2013-03-13 11:50:00,30.9,24.2,30.00,WSW,253,1.0,8.0,76,0.00,,---,0.00,VWS V14.01,2013-03-13 15:50:00,
2013-03-13 11:55:00,31.0,24.3,30.00,SW,236,1.0,8.0,76,0.00,,---,0.00,VWS V14.01,2013-03-13 15:55:00,
2013-03-13 12:00:00,31.2,25.1,30.01,West,281,1.0,6.0,78,0.00,,---,0.00,VWS V14.01,2013-03-13 16:00:00,
2013-03-13 12:05:00,29.7,24.9,30.01,NNW,330,6.0,12.0,82,0.00,,---,0.00,VWS V14.01,2013-03-13 16:05:00,
2013-03-13 12:10:00,28.9,25.2,30.01,NW,305,0.0,12.0,86,0.00,,---,0.00,VWS V14.01,2013-03-13 16:10:00,
2013-03-13 12:15:00,28.9,25.5,30.02,NW,321,5.0,12.0,87,0.00,,---,0.00,VWS V14.01,2013-03-13 16:15:00,
2013-03-13 12:20:00,27.4,24.0,30.03,NW,313,4.0,13.0,87,0.00,,---,0.00,VWS V14.01,2013-03-13 16:20:00,
2013-03-13 12:25:00,26.3,23.5,30.03,WNW,292,0.0,13.0,89,0.00,,---,0.00,VWS V14.01,2013-03-13 16:25:00,
2013-03-13 12:30:00,26.2,23.7,30.03,WNW,301,0.0,2.0,90,0.00,,---,0.00,VWS V14.01,2013-03-13 16:30:00,
2013-03-13 12:35:00,26.4,24.1,30.03,NNW,342,6.0,6.0,91,0.00,,---,0.00,VWS V14.01,2013-03-13 16:35:00,
2013-03-13 12:40:00,27.0,25.0,30.03,NW,321,5.0,7.0,92,0.00,,---,0.00,VWS V14.01,2013-03-13 16:40:00,
2013-03-13 12:45:00,27.8,25.0,30.03,West,276,5.0,9.0,89,0.00,,---,0.00,VWS V14.01,2013-03-13 16:45:00,
2013-03-13 12:50:00,28.0,22.3,30.03,WNW,296,5.0,14.0,79,0.00,,---,0.00,VWS V14.01,2013-03-13 16:50:00,
2013-03-13 12:55:00,28.4,21.8,30.04,NW,325,8.0,14.0,76,0.00,,---,0.00,VWS V14.01,2013-03-13 16:55:00,
2013-03-13 13:00:00,28.7,21.1,30.04,WSW,242,4.0,15.0,73,0.00,,---,0.00,VWS V14.01,2013-03-13 17:00:00,
2013-03-13 13:05:00,28.7,21.1,30.04,West,278,4.0,15.0,73,0.00,,---,0.00,VWS V14.01,2013-03-13 17:05:00,
2013-03-13 13:10:00,28.8,20.6,30.04,WNW,289,9.0,15.0,71,0.00,,---,0.00,VWS V14.01,2013-03-13 17:10:00,
2013-03-13 13:15:00,28.7,20.2,30.04,NW,325,6.0,15.0,70,0.00,,---,0.00,VWS V14.01,2013-03-13 17:15:00,
2013-03-13 13:20:00,28.8,20.6,30.04,NW,315,4.0,15.0,71,0.00,,---,0.00,VWS V14.01,2013-03-13 17:20:00,
2013-03-13 13:25:00,28.7,19.8,30.05,WNW,283,8.0,15.0,69,0.00,,---,0.00,VWS V14.01,2013-03-13 17:25:00,
2013-03-13 13:30:00,28.5,19.6,30.05,NNW,342,6.0,15.0,69,0.00,,---,0.00,VWS V14.01,2013-03-13 17:30:00,
2013-03-13 13:31:00,28.4,19.5,30.05,NW,319,6.0,12.0,69,0.00,,---,0.00,VWS V14.01,2013-03-13 17:31:00,
2013-03-13 13:36:00,28.3,19.5,30.05,WNW,294,5.0,13.0,69,0.00,,---,0.00,VWS V14.01,2013-03-13 17:36:00,
2013-03-13 13:41:00,28.5,20.3,30.05,North,350,8.0,15.0,71,0.00,,---,0.00,VWS V14.01,2013-03-13 17:41:00,
2013-03-13 13:46:00,28.7,19.8,30.05,NW,307,4.0,15.0,69,0.00,,---,0.00,VWS V14.01,2013-03-13 17:46:00,
2013-03-13 13:51:00,28.4,19.2,30.05,West,279,11.0,15.0,68,0.00,,---,0.00,VWS V14.01,2013-03-13 17:51:00,
2013-03-13 13:56:00,28.4,18.9,30.05,North,350,7.0,15.0,67,0.00,,---,0.00,VWS V14.01,2013-03-13 17:56:00,
2013-03-13 14:00:00,28.4,19.2,30.06,WSW,251,4.0,15.0,68,0.00,,---,0.00,VWS V14.01,2013-03-13 18:00:00,
2013-03-13 14:01:00,28.4,18.9,30.05,WNW,285,5.0,9.0,67,0.00,,---,0.00,VWS V14.01,2013-03-13 18:01:00,
2013-03-13 14:06:00,28.3,18.8,30.06,West,271,5.0,12.0,67,0.00,,---,0.00,VWS V14.01,2013-03-13 18:06:00,
2013-03-13 14:12:00,28.3,18.8,30.05,WNW,298,4.0,12.0,67,0.00,,---,0.00,VWS V14.01,2013-03-13 18:12:00,
2013-03-13 14:17:00,28.2,18.3,30.06,NNW,345,2.0,12.0,66,0.00,,---,0.00,VWS V14.01,2013-03-13 18:17:00,
2013-03-13 14:22:00,27.9,17.3,30.06,WNW,297,7.0,12.0,64,0.00,,---,0.00,VWS V14.01,2013-03-13 18:22:00,
2013-03-13 14:27:00,28.0,18.1,30.06,NNW,336,6.0,12.0,66,0.00,,---,0.00,VWS V14.01,2013-03-13 18:27:00,
2013-03-13 14:30:00,28.0,18.1,30.06,WNW,301,4.0,12.0,66,0.00,,---,0.00,VWS V14.01,2013-03-13 18:30:00,
2013-03-13 14:32:00,27.9,16.6,30.06,WNW,301,2.0,10.0,62,0.00,,---,0.00,VWS V14.01,2013-03-13 18:32:00,
2013-03-13 14:37:00,28.0,17.0,30.06,WNW,293,4.0,10.0,63,0.00,,---,0.00,VWS V14.01,2013-03-13 18:37:00,
2013-03-13 14:42:00,28.1,17.1,30.06,West,278,5.0,10.0,63,0.00,,---,0.00,VWS V14.01,2013-03-13 18:42:00,
2013-03-13 14:47:00,28.3,16.6,30.06,WNW,296,1.0,10.0,61,0.00,,---,0.00,VWS V14.01,2013-03-13 18:47:00,
2013-03-13 14:52:00,28.7,17.3,30.06,NW,311,4.0,10.0,62,0.00,,---,0.00,VWS V14.01,2013-03-13 18:52:00,
2013-03-13 14:57:00,29.1,18.1,30.06,WNW,288,4.0,10.0,63,0.00,,---,0.00,VWS V14.01,2013-03-13 18:57:00,
2013-03-13 15:00:00,29.1,18.1,30.06,WNW,288,2.0,10.0,63,0.00,,---,0.00,VWS V14.01,2013-03-13 19:00:00,
2013-03-13 15:02:00,29.3,16.8,30.06,North,358,3.0,9.0,59,0.00,,---,0.00,VWS V14.01,2013-03-13 19:02:00,
2013-03-13 15:07:00,29.5,17.0,30.06,WSW,246,1.0,9.0,59,0.00,,---,0.00,VWS V14.01,2013-03-13 19:07:00,
2013-03-13 15:12:00,29.4,17.6,30.06,NNW,338,0.0,9.0,61,0.00,,---,0.00,VWS V14.01,2013-03-13 19:12:00,
2013-03-13 15:17:00,29.4,17.6,30.06,WNW,286,4.0,9.0,61,0.00,,---,0.00,VWS V14.01,2013-03-13 19:17:00,
2013-03-13 15:22:00,29.2,18.2,30.06,North,5,4.0,10.0,63,0.00,,---,0.00,VWS V14.01,2013-03-13 19:22:00,
2013-03-13 15:27:00,28.8,17.8,30.07,NW,324,6.0,15.0,63,0.00,,---,0.00,VWS V14.01,2013-03-13 19:27:00,
2013-03-13 15:30:00,28.8,17.8,30.07,NW,307,5.0,15.0,63,0.00,,---,0.00,VWS V14.01,2013-03-13 19:30:00,
2013-03-13 15:32:00,28.8,18.9,30.06,NW,321,9.0,9.0,66,0.00,,---,0.00,VWS V14.01,2013-03-13 19:32:00,
2013-03-13 15:37:00,28.8,18.9,30.07,NW,324,8.0,15.0,66,0.00,,---,0.00,VWS V14.01,2013-03-13 19:37:00,
2013-03-13 15:42:00,28.9,19.7,30.07,West,276,6.0,15.0,68,0.00,,---,0.00,VWS V14.01,2013-03-13 19:42:00,
2013-03-13 15:47:00,29.0,19.4,30.07,WNW,296,6.0,15.0,67,0.00,,---,0.00,VWS V14.01,2013-03-13 19:47:00,
2013-03-13 15:52:00,29.0,18.4,30.07,NW,317,6.0,15.0,64,0.00,,---,0.00,VWS V14.01,2013-03-13 19:52:00,
2013-03-13 15:57:00,29.1,18.8,30.07,WNW,303,1.0,1.0,65,0.00,,---,0.00,VWS V14.01,2013-03-13 19:57:00,
2013-03-13 16:00:00,29.1,18.8,30.07,WNW,282,1.0,15.0,65,0.00,,---,0.00,VWS V14.01,2013-03-13 20:00:00,
2013-03-13 16:02:00,29.0,19.1,30.07,WNW,301,7.0,7.0,66,0.00,,---,0.00,VWS V14.01,2013-03-13 20:02:00,
2013-03-13 16:07:00,28.8,19.6,30.07,West,260,3.0,14.0,68,0.00,,---,0.00,VWS V14.01,2013-03-13 20:07:00,
2013-03-13 16:12:00,28.8,20.9,30.07,WNW,301,4.0,14.0,72,0.00,,---,0.00,VWS V14.01,2013-03-13 20:12:00,
2013-03-13 16:17:00,28.7,21.1,30.08,WNW,283,4.0,14.0,73,0.00,,---,0.00,VWS V14.01,2013-03-13 20:17:00,
2013-03-13 16:22:00,28.6,21.4,30.08,West,265,1.0,14.0,74,0.00,,---,0.00,VWS V14.01,2013-03-13 20:22:00,
2013-03-13 16:27:00,28.6,22.3,30.08,WNW,283,0.0,0.0,77,0.00,,---,0.00,VWS V14.01,2013-03-13 20:27:00,
2013-03-13 16:30:00,28.6,22.3,30.08,WNW,283,0.0,14.0,77,0.00,,---,0.00,VWS V14.01,2013-03-13 20:30:00,
2013-03-13 16:32:00,28.6,22.6,30.08,NW,319,0.0,5.0,78,0.00,,---,0.00,VWS V14.01,2013-03-13 20:32:00,
2013-03-13 16:37:00,28.6,22.3,30.09,NW,304,5.0,13.0,77,0.00,,---,0.00,VWS V14.01,2013-03-13 20:37:00,
2013-03-13 16:42:00,28.6,22.0,30.09,West,278,0.0,13.0,76,0.00,,---,0.00,VWS V14.01,2013-03-13 20:42:00,
2013-03-13 16:47:00,28.4,20.9,30.09,WNW,294,1.0,13.0,73,0.00,,---,0.00,VWS V14.01,2013-03-13 20:47:00,
2013-03-13 16:53:00,28.1,21.5,30.09,NW,317,6.0,13.0,76,0.00,,---,0.00,VWS V14.01,2013-03-13 20:53:00,
2013-03-13 16:58:00,27.9,22.2,30.09,WNW,297,1.0,7.0,79,0.00,,---,0.00,VWS V14.01,2013-03-13 20:58:00,
2013-03-13 17:00:00,27.9,22.2,30.09,NW,319,6.0,14.0,79,0.00,,---,0.00,VWS V14.01,2013-03-13 21:00:00,
2013-03-13 17:03:00,27.8,22.1,30.09,NNW,334,4.0,11.0,79,0.00,,---,0.00,VWS V14.01,2013-03-13 21:03:00,
2013-03-13 17:08:00,28.0,22.3,30.09,West,278,2.0,12.0,79,0.00,,---,0.00,VWS V14.01,2013-03-13 21:08:00,
2013-03-13 17:13:00,28.0,22.0,30.10,NW,319,7.0,12.0,78,0.00,,---,0.00,VWS V14.01,2013-03-13 21:13:00,
2013-03-13 17:18:00,28.0,22.6,30.10,NNE,22,4.0,12.0,80,0.00,,---,0.00,VWS V14.01,2013-03-13 21:18:00,
2013-03-13 17:23:00,27.7,22.6,30.11,NW,315,4.0,12.0,81,0.00,,---,0.00,VWS V14.01,2013-03-13 21:23:00,
2013-03-13 17:28:00,27.5,22.5,30.11,WNW,285,1.0,4.0,81,0.00,,---,0.00,VWS V14.01,2013-03-13 21:28:00,
2013-03-13 17:30:00,27.5,22.5,30.11,WSW,254,0.0,12.0,81,0.00,,---,0.00,VWS V14.01,2013-03-13 21:30:00,
2013-03-13 17:33:00,27.6,22.0,30.11,West,265,4.0,5.0,79,0.00,,---,0.00,VWS V14.01,2013-03-13 21:33:00,
2013-03-13 17:38:00,27.7,21.8,30.10,NNW,348,2.0,11.0,78,0.00,,---,0.00,VWS V14.01,2013-03-13 21:38:00,
2013-03-13 17:43:00,27.8,22.1,30.10,WNW,297,5.0,11.0,79,0.00,,---,0.00,VWS V14.01,2013-03-13 21:43:00,
2013-03-13 17:48:00,27.4,22.9,30.11,NW,305,6.0,13.0,83,0.00,,---,0.00,VWS V14.01,2013-03-13 21:48:00,
2013-03-13 17:53:00,27.1,22.9,30.11,WNW,300,6.0,13.0,84,0.00,,---,0.00,VWS V14.01,2013-03-13 21:53:00,
2013-03-13 17:58:00,27.1,22.4,30.11,North,5,2.0,2.0,82,0.00,,---,0.00,VWS V14.01,2013-03-13 21:58:00,
2013-03-13 18:00:00,27.1,22.4,30.11,North,5,0.0,13.0,82,0.00,,---,0.00,VWS V14.01,2013-03-13 22:00:00,
2013-03-13 18:03:00,27.5,22.5,30.11,NW,325,5.0,11.0,81,0.00,,---,0.00,VWS V14.01,2013-03-13 22:03:00,
2013-03-13 18:08:00,27.5,22.7,30.11,West,261,2.0,11.0,82,0.00,,---,0.00,VWS V14.01,2013-03-13 22:08:00,
2013-03-13 18:13:00,27.2,23.0,30.11,West,277,5.0,13.0,84,0.00,,---,0.00,VWS V14.01,2013-03-13 22:13:00,
2013-03-13 18:18:00,27.3,23.1,30.11,NW,325,1.0,13.0,84,0.00,,---,0.00,VWS V14.01,2013-03-13 22:18:00,
2013-03-13 18:23:00,27.5,23.3,30.11,WNW,288,6.0,13.0,84,0.00,,---,0.00,VWS V14.01,2013-03-13 22:23:00,
2013-03-13 18:28:00,27.6,23.1,30.12,NW,315,5.0,12.0,83,0.00,,---,0.00,VWS V14.01,2013-03-13 22:28:00,
2013-03-13 18:30:00,27.5,24.7,30.12,WNW,290,7.0,13.0,89,0.00,,---,0.00,VWS V14.01,2013-03-13 22:30:00,
2013-03-13 18:33:00,27.7,22.9,30.12,WNW,293,2.0,12.0,82,0.00,,---,0.00,VWS V14.01,2013-03-13 22:33:00,
2013-03-13 18:38:00,27.8,21.9,30.12,NW,311,1.0,12.0,78,0.00,,---,0.00,VWS V14.01,2013-03-13 22:38:00,
2013-03-13 18:43:00,27.9,21.6,30.12,North,7,3.0,12.0,77,0.00,,---,0.00,VWS V14.01,2013-03-13 22:43:00,
2013-03-13 18:48:00,28.0,22.0,30.12,WNW,284,6.0,13.0,78,0.00,,---,0.00,VWS V14.01,2013-03-13 22:48:00,
2013-03-13 18:53:00,27.9,21.6,30.12,NW,318,4.0,13.0,77,0.00,,---,0.00,VWS V14.01,2013-03-13 22:53:00,
2013-03-13 18:58:00,27.9,21.6,30.12,NW,317,9.0,12.0,77,0.00,,---,0.00,VWS V14.01,2013-03-13 22:58:00,
2013-03-13 19:00:00,27.9,21.6,30.12,NW,304,4.0,13.0,77,0.00,,---,0.00,VWS V14.01,2013-03-13 23:00:00,
2013-03-13 19:03:00,28.0,21.7,30.13,WNW,287,0.0,12.0,77,0.00,,---,0.00,VWS V14.01,2013-03-13 23:03:00,
2013-03-13 19:08:00,28.1,21.5,30.12,West,281,5.0,12.0,76,0.00,,---,0.00,VWS V14.01,2013-03-13 23:08:00,
2013-03-13 19:13:00,28.0,21.1,30.13,NW,323,10.0,12.0,75,0.00,,---,0.00,VWS V14.01,2013-03-13 23:13:00,
2013-03-13 19:18:00,28.1,21.5,30.13,NW,324,7.0,12.0,76,0.00,,---,0.00,VWS V14.01,2013-03-13 23:18:00,
2013-03-13 19:24:00,28.1,21.5,30.13,WNW,282,5.0,12.0,76,0.00,,---,0.00,VWS V14.01,2013-03-13 23:24:00,
2013-03-13 19:29:00,28.1,21.8,30.13,WNW,282,1.0,5.0,77,0.00,,---,0.00,VWS V14.01,2013-03-13 23:29:00,
2013-03-13 19:30:00,28.1,21.5,30.13,WNW,295,4.0,12.0,76,0.00,,---,0.00,VWS V14.01,2013-03-13 23:30:00,
2013-03-13 19:34:00,28.2,21.0,30.13,NNW,348,2.0,11.0,74,0.00,,---,0.00,VWS V14.01,2013-03-13 23:34:00,
2013-03-13 19:39:00,28.2,20.7,30.14,West,270,1.0,11.0,73,0.00,,---,0.00,VWS V14.01,2013-03-13 23:39:00,
2013-03-13 19:44:00,28.1,20.6,30.14,West,271,2.0,11.0,73,0.00,,---,0.00,VWS V14.01,2013-03-13 23:44:00,
2013-03-13 19:49:00,28.1,20.6,30.14,WNW,300,4.0,11.0,73,0.00,,---,0.00,VWS V14.01,2013-03-13 23:49:00,
2013-03-13 19:54:00,28.1,20.9,30.14,NW,324,2.0,11.0,74,0.00,,---,0.00,VWS V14.01,2013-03-13 23:54:00,
2013-03-13 19:59:00,28.2,21.0,30.14,SSW,193,1.0,6.0,74,0.00,,---,0.00,VWS V14.01,2013-03-13 23:59:00,
2013-03-13 20:00:00,28.2,21.0,30.14,WNW,288,0.0,11.0,74,0.00,,---,0.00,VWS V14.01,2013-03-14 00:00:00,
2013-03-13 20:04:00,28.3,21.1,30.15,WNW,284,2.0,7.0,74,0.00,,---,0.00,VWS V14.01,2013-03-14 00:04:00,
2013-03-13 20:09:00,28.3,21.4,30.15,WNW,290,7.0,8.0,75,0.00,,---,0.00,VWS V14.01,2013-03-14 00:09:00,
2013-03-13 20:14:00,28.3,21.1,30.14,West,277,4.0,9.0,74,0.00,,---,0.00,VWS V14.01,2013-03-14 00:14:00,
2013-03-13 20:19:00,28.3,21.4,30.14,WNW,296,2.0,9.0,75,0.00,,---,0.00,VWS V14.01,2013-03-14 00:19:00,
2013-03-13 20:24:00,28.3,21.4,30.15,WNW,299,2.0,9.0,75,0.00,,---,0.00,VWS V14.01,2013-03-14 00:24:00,
2013-03-13 20:29:00,28.4,21.8,30.15,West,266,0.0,2.0,76,0.00,,---,0.00,VWS V14.01,2013-03-14 00:29:00,
2013-03-13 20:30:00,28.3,21.7,30.15,NW,311,1.0,9.0,76,0.00,,---,0.00,VWS V14.01,2013-03-14 00:30:00,
2013-03-13 20:34:00,28.4,21.8,30.15,NW,325,2.0,11.0,76,0.00,,---,0.00,VWS V14.01,2013-03-14 00:34:00,
2013-03-13 20:39:00,28.4,21.8,30.15,SW,217,2.0,12.0,76,0.00,,---,0.00,VWS V14.01,2013-03-14 00:39:00,
2013-03-13 20:44:00,28.5,22.2,30.15,NNW,336,5.0,12.0,77,0.00,,---,0.00,VWS V14.01,2013-03-14 00:44:00,
2013-03-13 20:49:00,28.5,22.2,30.15,West,280,2.0,12.0,77,0.00,,---,0.00,VWS V14.01,2013-03-14 00:49:00,
2013-03-13 20:54:00,28.5,22.2,30.15,WNW,292,6.0,12.0,77,0.00,,---,0.00,VWS V14.01,2013-03-14 00:54:00,
2013-03-13 20:59:00,28.5,22.2,30.15,North,350,1.0,7.0,77,0.00,,---,0.00,VWS V14.01,2013-03-14 00:59:00,
2013-03-13 21:00:00,28.5,22.2,30.15,NW,307,2.0,12.0,77,0.00,,---,0.00,VWS V14.01,2013-03-14 01:00:00,
2013-03-13 21:04:00,28.5,22.2,30.15,WNW,298,2.0,7.0,77,0.00,,---,0.00,VWS V14.01,2013-03-14 01:04:00,
2013-03-13 21:09:00,28.6,22.0,30.16,WNW,298,0.0,7.0,76,0.00,,---,0.00,VWS V14.01,2013-03-14 01:09:00,
2013-03-13 21:14:00,28.6,22.0,30.16,WNW,282,5.0,7.0,76,0.00,,---,0.00,VWS V14.01,2013-03-14 01:14:00,
2013-03-13 21:19:00,28.6,21.7,30.16,WNW,288,5.0,7.0,75,0.00,,---,0.00,VWS V14.01,2013-03-14 01:19:00,
2013-03-13 21:24:00,28.6,21.4,30.16,WSW,255,3.0,8.0,74,0.00,,---,0.00,VWS V14.01,2013-03-14 01:24:00,
2013-03-13 21:29:00,28.7,21.5,30.16,WSW,248,1.0,9.0,74,0.00,,---,0.00,VWS V14.01,2013-03-14 01:29:00,
2013-03-13 21:30:00,28.6,21.4,30.16,West,275,2.0,8.0,74,0.00,,---,0.00,VWS V14.01,2013-03-14 01:30:00,
2013-03-13 21:34:00,28.6,21.7,30.16,West,268,1.0,9.0,75,0.00,,---,0.00,VWS V14.01,2013-03-14 01:34:00,
2013-03-13 21:39:00,28.7,21.8,30.16,WNW,300,1.0,9.0,75,0.00,,---,0.00,VWS V14.01,2013-03-14 01:39:00,
2013-03-13 21:44:00,28.7,21.8,30.16,WNW,282,0.0,9.0,75,0.00,,---,0.00,VWS V14.01,2013-03-14 01:44:00,
2013-03-13 21:49:00,28.7,21.8,30.16,WNW,301,1.0,9.0,75,0.00,,---,0.00,VWS V14.01,2013-03-14 01:49:00,
2013-03-13 21:54:00,28.7,21.8,30.16,WNW,289,1.0,9.0,75,0.00,,---,0.00,VWS V14.01,2013-03-14 01:54:00,
2013-03-13 21:59:00,28.8,21.9,30.17,NW,315,1.0,6.0,75,0.00,,---,0.00,VWS V14.01,2013-03-14 01:59:00,
2013-03-13 22:00:00,28.8,21.9,30.16,NNW,333,2.0,9.0,75,0.00,,---,0.00,VWS V14.01,2013-03-14 02:00:00,
2013-03-13 22:04:00,28.9,22.0,30.17,West,280,2.0,9.0,75,0.00,,---,0.00,VWS V14.01,2013-03-14 02:04:00,
2013-03-13 22:09:00,29.0,22.1,30.17,NW,323,1.0,11.0,75,0.00,,---,0.00,VWS V14.01,2013-03-14 02:09:00,
2013-03-13 22:14:00,29.0,22.1,30.17,WNW,300,5.0,11.0,75,0.00,,---,0.00,VWS V14.01,2013-03-14 02:14:00,
2013-03-13 22:19:00,29.1,22.2,30.17,West,276,0.0,11.0,75,0.00,,---,0.00,VWS V14.01,2013-03-14 02:19:00,
2013-03-13 22:24:00,29.2,22.3,30.17,WSW,240,0.0,11.0,75,0.00,,---,0.00,VWS V14.01,2013-03-14 02:24:00,
2013-03-13 22:29:00,29.2,22.6,30.17,WNW,292,4.0,9.0,76,0.00,,---,0.00,VWS V14.01,2013-03-14 02:29:00,
2013-03-13 22:30:00,29.2,22.3,30.17,NNW,331,1.0,11.0,75,0.00,,---,0.00,VWS V14.01,2013-03-14 02:30:00,
2013-03-13 22:34:00,29.2,22.9,30.17,NW,304,2.0,9.0,77,0.00,,---,0.00,VWS V14.01,2013-03-14 02:34:00,
2013-03-13 22:39:00,29.2,22.9,30.17,NNW,343,5.0,9.0,77,0.00,,---,0.00,VWS V14.01,2013-03-14 02:39:00,
2013-03-13 22:44:00,29.2,22.6,30.18,NW,321,5.0,9.0,76,0.00,,---,0.00,VWS V14.01,2013-03-14 02:44:00,
2013-03-13 22:49:00,29.2,22.3,30.18,NW,309,4.0,9.0,75,0.00,,---,0.00,VWS V14.01,2013-03-14 02:49:00,
2013-03-13 22:54:00,29.2,22.0,30.18,NNW,334,2.0,10.0,74,0.00,,---,0.00,VWS V14.01,2013-03-14 02:54:00,
2013-03-13 22:59:00,29.3,21.7,30.18,WNW,300,1.0,6.0,73,0.00,,---,0.00,VWS V14.01,2013-03-14 02:59:00,
2013-03-13 23:00:00,29.3,22.1,30.18,NW,325,2.0,10.0,74,0.00,,---,0.00,VWS V14.01,2013-03-14 03:00:00,
2013-03-13 23:04:00,29.3,21.7,30.18,WNW,284,7.0,7.0,73,0.00,,---,0.00,VWS V14.01,2013-03-14 03:04:00,
2013-03-13 23:09:00,29.3,21.1,30.18,WNW,286,0.0,8.0,71,0.00,,---,0.00,VWS V14.01,2013-03-14 03:09:00,
2013-03-13 23:14:00,29.3,20.7,30.18,NW,319,8.0,10.0,70,0.00,,---,0.00,VWS V14.01,2013-03-14 03:14:00,
2013-03-13 23:20:00,29.3,20.4,30.18,NW,313,0.0,10.0,69,0.00,,---,0.00,VWS V14.01,2013-03-14 03:20:00,
2013-03-13 23:25:00,29.3,20.1,30.18,West,276,4.0,11.0,68,0.00,,---,0.00,VWS V14.01,2013-03-14 03:25:00,
2013-03-13 23:30:00,29.3,20.1,30.19,SW,230,3.0,10.0,68,0.00,,---,0.00,VWS V14.01,2013-03-14 03:30:00,
2013-03-13 23:35:00,29.3,20.1,30.19,North,350,4.0,10.0,68,0.00,,---,0.00,VWS V14.01,2013-03-14 03:35:00,
2013-03-13 23:40:00,29.3,19.7,30.19,West,275,2.0,12.0,67,0.00,,---,0.00,VWS V14.01,2013-03-14 03:40:00,
2013-03-13 23:45:00,29.3,20.1,30.19,North,354,4.0,12.0,68,0.00,,---,0.00,VWS V14.01,2013-03-14 03:45:00,
2013-03-13 23:50:00,29.2,20.3,30.19,WNW,303,2.0,12.0,69,0.00,,---,0.00,VWS V14.01,2013-03-14 03:50:00,
2013-03-13 23:55:00,29.2,20.0,30.19,NNW,329,2.0,12.0,68,0.00,,---,0.00,VWS V14.01,2013-03-14 03:55:00,